{"data":{"norad_id":54741,"intl_designator":"2022-170A","name":"GALAXY 35 (G-35)","alt_names":[],"object_type":"PAYLOAD","status":"ACTIVE","operator":null,"country":"ITSO","launch_date":"2022-12-13","launch_site_code":"FRGUI","launch_vehicle":null,"mission":null,"orbit_class":"UNKNOWN","rcs_meters":null,"size_class":null,"mass_kg":null,"dimensions":null,"purposes":["comms"],"wikipedia_slug":null,"has_3d_model":false,"image_url":null,"decayed_at":null,"tle_current":{"epoch":"2026-09-20T04:19:38.599104Z","epoch_age_seconds":45961,"freshness":"FRESH","line1":"1 54741U 22170A   26263.18030786 -.00000167  00000+0  00000+0 0  9998","line2":"2 54741   0.0103 207.1156 0002009 323.9370 159.8477  1.00271925 13841","mean_motion":1.00271925,"eccentricity":0.0002009,"inclination_deg":0.0103,"raan_deg":207.1156,"arg_perigee_deg":323.937,"mean_anomaly_deg":159.8477,"bstar":0,"rev_number":1384,"period_min":1436.094898946,"perigee_km":35778.084827388,"apogee_km":35795.02660092,"semimajor_km":42164.692714154,"source":"CELESTRAK","updated_at":"2026-09-20T09:00:35.525815Z"}}}